W4SNA-2 Weather Reports


time (UTC)temp
C
wind
direction
speed
KPH
gust
KPH
rain 1hr
cm
rain 24hr
cm
rain mn
cm
humidity
%
barometer
mb
20260509124940 12 0 0.0 16.1 0.00 0.00 0.00 87 1014.6
20260509124442 12 198 3.2 20.9 0.00 0.00 0.00 86 1014.7
20260509123941 12 197 1.6 20.9 0.00 0.00 0.00 86 1014.7
20260509123440 12 199 1.6 17.7 0.00 0.00 0.00 86 1014.7
20260509122944 11 0 0.0 16.1 0.00 0.00 0.00 85 1014.9
20260509122440 11 0 0.0 8.0 0.00 0.00 0.00 87 1014.8
20260509121941 11 0 0.0 8.0 0.00 0.00 0.00 88 1014.7
20260509121441 11 0 0.0 8.0 0.00 0.00 0.00 88 1014.6
20260509120943 11 0 0.0 1.6 0.00 0.00 0.00 87 1014.5
20260509120440 11 0 0.0 6.4 0.00 0.00 0.00 87 1014.3
20260509115942 11 0 0.0 11.3 0.00 0.00 0.00 87 1014.2
20260509115441 11 0 0.0 11.3 0.00 0.00 0.00 87 1014.3
20260509115109 11 201 4.8 17.7 0.00 0.00 0.00 86 1014.2
20260509114837 11 201 4.8 17.7 0.00 0.00 0.00 86 1014.2
20260509114338 11 0 0.0 12.9 0.00 0.00 0.00 86 1014.1
20260509113837 11 0 0.0 11.3 0.00 0.00 0.00 86 1014.2
20260509113623 11 202 1.6 11.3 0.00 0.00 0.00 86 1014.4
20260509113336 11 202 1.6 11.3 0.00 0.00 0.00 86 1014.4
20260509112836 11 200 1.6 9.7 0.00 0.00 0.00 86 1014.3
20260509112339 10 202 1.6 11.3 0.00 0.00 0.00 85 1014.2
20260509112336 11 0 0.0 8.0 0.00 0.00 0.00 85 1014.2
20260509111837 10 202 1.6 11.3 0.00 0.00 0.00 85 1014.2
20260509111337 10 0 0.0 11.3 0.00 0.00 0.00 85 1014.1
20260509110836 10 202 1.6 12.9 0.00 0.00 0.00 85 1014.0
20260509110340 10 201 1.6 12.9 0.00 0.00 0.00 84 1013.9
20260509105836 11 202 4.8 12.9 0.00 0.00 0.00 84 1013.9
20260509105336 11 202 1.6 9.7 0.00 0.00 0.00 84 1014.0
20260509104836 11 201 1.6 9.7 0.00 0.00 0.00 83 1014.0
20260509104336 11 202 3.2 11.3 0.00 0.00 0.00 83 1013.9
20260509103836 11 0 0.0 12.9 0.00 0.00 0.00 83 1013.9
20260509103336 11 202 1.6 12.9 0.00 0.00 0.00 82 1013.8
20260509102836 11 202 3.2 14.5 0.00 0.00 0.00 82 1013.7
20260509102336 11 199 3.2 14.5 0.00 0.00 0.00 82 1013.6
20260509101836 11 199 3.2 12.9 0.00 0.00 0.00 82 1013.6
20260509101336 11 200 6.4 12.9 0.00 0.00 0.00 82 1013.4
20260509100836 11 199 3.2 14.5 0.00 0.00 0.00 81 1013.4
20260509100336 11 199 4.8 14.5 0.00 0.00 0.00 81 1013.3
20260509095836 11 202 1.6 11.3 0.00 0.00 0.00 80 1013.4
20260509095336 11 203 1.6 11.3 0.00 0.00 0.00 80 1013.2
20260509094836 11 0 0.0 19.3 0.00 0.00 0.00 79 1013.2
20260509094336 11 202 6.4 19.3 0.00 0.00 0.00 79 1013.3
20260509093836 12 195 3.2 14.5 0.00 0.00 0.00 79 1013.4
20260509093336 12 197 3.2 14.5 0.00 0.00 0.00 78 1013.5
20260509092836 12 195 3.2 14.5 0.00 0.00 0.00 78 1013.6
20260509092336 12 213 3.2 19.3 0.00 0.00 0.00 78 1013.4
20260509091836 11 207 1.6 19.3 0.00 0.00 0.00 78 1013.5
20260509091339 11 206 4.8 17.7 0.00 0.00 0.00 79 1013.5
20260509090836 12 199 6.4 17.7 0.00 0.00 0.00 79 1013.4
20260509090336 12 202 8.0 27.4 0.00 0.00 0.00 77 1013.5
20260509085836 12 203 12.9 27.4 0.00 0.00 0.00 77 1013.5
20260509085336 12 197 6.4 25.7 0.00 0.00 0.00 77 1013.6
20260509084837 12 197 8.0 25.7 0.00 0.00 0.00 78 1013.7
20260509084337 12 203 6.4 20.9 0.00 0.00 0.00 78 1013.8
20260509083836 12 197 4.8 20.9 0.00 0.00 0.00 78 1013.7
20260509083227 12 201 6.4 22.5 0.00 0.00 0.00 78 1013.8
20260509082725 12 198 8.0 22.5 0.00 0.00 0.00 78 1013.8
20260509082226 12 201 8.0 22.5 0.00 0.00 0.00 77 1013.9
20260509081725 12 199 3.2 19.3 0.00 0.00 0.00 77 1013.9
20260509081225 12 203 4.8 19.3 0.00 0.00 0.00 77 1013.9
20260509080725 12 197 4.8 16.1 0.00 0.00 0.00 77 1013.9
20260509080225 12 196 3.2 12.9 0.00 0.00 0.00 76 1014.0
20260509075725 12 206 3.2 12.9 0.00 0.00 0.00 76 1014.1
20260509075228 12 194 1.6 11.3 0.00 0.00 0.00 76 1014.1
20260509074725 12 199 1.6 11.3 0.00 0.00 0.00 76 1014.1
20260509074225 12 219 1.6 11.3 0.00 0.00 0.00 76 1014.1
20260509073725 12 200 1.6 14.5 0.00 0.00 0.00 76 1014.1
20260509073227 12 202 3.2 17.7 0.00 0.00 0.00 77 1014.1
20260509072725 12 203 4.8 17.7 0.00 0.00 0.00 77 1014.3
20260509072226 12 198 4.8 19.3 0.00 0.00 0.00 77 1014.3
20260509071725 12 204 6.4 20.9 0.00 0.00 0.00 77 1014.3
20260509071226 12 199 4.8 20.9 0.00 0.00 0.00 77 1014.3
20260509070725 12 198 8.0 19.3 0.00 0.00 0.00 78 1014.3
20260509070226 12 195 8.0 19.3 0.00 0.00 0.00 78 1014.3
20260509065725 12 203 3.2 22.5 0.00 0.00 0.00 78 1014.3
20260509065227 12 211 3.2 22.5 0.00 0.00 0.00 78 1014.5
20260509064725 11 198 4.8 16.1 0.00 0.00 0.00 79 1014.6
20260509064225 11 202 8.0 17.7 0.00 0.00 0.00 79 1014.6
20260509063725 12 199 8.0 17.7 0.00 0.00 0.00 78 1014.8
20260509063226 12 203 6.4 17.7 0.00 0.00 0.00 77 1014.8
20260509062725 12 200 6.4 19.3 0.00 0.00 0.00 77 1014.9
20260509062226 12 204 6.4 19.3 0.00 0.00 0.00 77 1015.0
20260509061725 12 201 9.7 17.7 0.00 0.00 0.00 76 1015.0
20260509061225 12 196 4.8 17.7 0.00 0.00 0.00 77 1015.0
20260509060725 12 201 6.4 25.7 0.00 0.00 0.00 76 1015.1
20260509060226 12 199 9.7 25.7 0.00 0.00 0.00 76 1015.2
20260509055726 12 210 8.0 22.5 0.00 0.00 0.00 75 1015.2
20260509055228 12 201 6.4 17.7 0.00 0.00 0.00 74 1015.3
20260509054725 12 197 8.0 20.9 0.00 0.00 0.00 73 1015.4
20260509054225 12 200 1.6 38.6 0.00 0.00 0.00 73 1015.5
20260509053726 12 198 12.9 38.6 0.00 0.00 0.00 72 1015.6
20260509053228 12 206 4.8 20.9 0.00 0.00 0.00 72 1015.7
20260509052725 12 203 4.8 17.7 0.00 0.00 0.00 71 1015.8
20260509052225 12 196 6.4 20.9 0.00 0.00 0.00 70 1015.9
20260509051725 12 201 8.0 27.4 0.00 0.00 0.00 70 1015.9
20260509051227 12 194 9.7 33.8 0.00 0.00 0.00 69 1016.0
20260509050725 12 199 17.7 35.4 0.00 0.00 0.00 68 1015.8
20260509050228 12 199 19.3 40.2 0.00 0.00 0.00 68 1015.7
20260509045727 12 199 19.3 40.2 0.00 0.00 0.00 67 1015.9
20260509045227 13 201 19.3 32.2 0.00 0.00 0.00 66 1015.9
20260509044725 13 201 14.5 33.8 0.00 0.00 0.00 66 1015.9
20260509044226 13 199 20.9 33.8 0.00 0.00 0.00 66 1016.0
20260509043725 13 195 11.3 30.6 0.00 0.00 0.00 67 1015.9
20260509043229 13 201 14.5 29.0 0.00 0.00 0.00 68 1016.0
20260509042725 13 195 14.5 27.4 0.00 0.00 0.00 68 1015.9
20260509042227 13 198 11.3 20.9 0.00 0.00 0.00 68 1016.0
20260509041725 12 202 9.7 22.5 0.00 0.00 0.00 67 1016.1
20260509041226 12 197 12.9 22.5 0.00 0.00 0.00 66 1015.1
20260509040726 13 198 12.9 24.1 0.00 0.00 0.00 65 1015.2
20260509040226 13 198 8.0 24.1 0.00 0.00 0.00 64 1015.3
20260509035542 13 200 22.5 43.5 0.00 0.00 0.00 63 1015.3
20260509035042 13 199 19.3 43.5 0.00 0.00 0.00 62 1015.4
20260509034542 13 199 19.3 38.6 0.00 0.00 0.00 62 1015.3
20260509033933 13 199 19.3 35.4 0.00 0.00 0.00 61 1015.4
20260509033433 13 200 19.3 38.6 0.00 0.00 0.00 61 1015.4
20260509032933 13 194 20.9 38.6 0.00 0.00 0.00 61 1015.4
20260509032433 13 201 17.7 38.6 0.00 0.00 0.00 60 1015.4
20260509031933 13 201 24.1 40.2 0.00 0.00 0.00 61 1015.4
20260509031433 13 200 25.7 40.2 0.00 0.00 0.00 60 1015.5
20260509030933 13 192 14.5 43.5 0.00 0.00 0.00 61 1015.5
20260509030433 13 195 19.3 43.5 0.00 0.00 0.00 60 1015.5
20260509025933 13 196 14.5 40.2 0.00 0.00 0.00 60 1015.5
20260509025434 13 189 14.5 32.2 0.00 0.00 0.00 59 1015.6
20260509024933 13 190 6.4 35.4 0.00 0.00 0.00 59 1015.6
20260509024433 13 195 12.9 38.6 0.00 0.00 0.00 59 1015.5
20260509023933 13 191 16.1 38.6 0.00 0.00 0.00 57 1015.6
20260509023433 13 195 19.3 38.6 0.00 0.00 0.00 57 1015.6
20260509022933 13 192 17.7 35.4 0.00 0.00 0.00 57 1015.7
20260509022433 13 194 16.1 35.4 0.00 0.00 0.00 56 1015.6
20260509021933 13 186 12.9 27.4 0.00 0.00 0.00 55 1015.6
20260509021433 13 188 11.3 27.4 0.00 0.00 0.00 54 1015.7
20260509020933 13 196 11.3 19.3 0.00 0.00 0.00 54 1015.7
20260509020022 13 199 12.9 22.5 0.00 0.00 0.00 52 1015.9
20260509015524 13 188 9.7 33.8 0.00 0.00 0.00 54 1015.9
20260509015021 13 191 17.7 35.4 0.00 0.00 0.00 52 1015.8
20260509014521 13 190 17.7 35.4 0.00 0.00 0.00 52 1015.8
20260509014022 13 183 6.4 20.9 0.00 0.00 0.00 53 1015.9
20260509013524 13 190 8.0 20.9 0.00 0.00 0.00 52 1015.8
20260509013021 14 186 8.0 17.7 0.00 0.00 0.00 51 1015.7
20260509012523 14 183 4.8 16.1 0.00 0.00 0.00 50 1015.7
20260509012021 14 198 9.7 16.1 0.00 0.00 0.00 49 1015.8
20260509011524 14 195 8.0 14.5 0.00 0.00 0.00 49 1015.8
20260509010738 14 196 4.8 14.5 0.00 0.00 0.00 49 1015.7
20260509010241 14 199 6.4 14.5 0.00 0.00 0.00 48 1015.6
20260509005739 14 199 6.4 16.1 0.00 0.00 0.00 49 1015.6
20260509005238 14 202 8.0 16.1 0.00 0.00 0.00 48 1015.7
20260509004739 14 196 8.0 14.5 0.00 0.00 0.00 48 1015.6
20260509004238 14 198 8.0 14.5 0.00 0.00 0.00 49 1015.5
20260509003739 14 196 8.0 20.9 0.00 0.00 0.00 49 1015.6
20260509003241 14 195 4.8 20.9 0.00 0.00 0.00 50 1015.5
20260509002738 14 195 4.8 19.3 0.00 0.00 0.00 49 1015.5
20260509002239 14 196 6.4 19.3 0.00 0.00 0.00 49 1015.4
20260509001740 14 195 4.8 14.5 0.00 0.00 0.00 49 1015.4
20260509001238 14 195 6.4 14.5 0.00 0.00 0.00 48 1015.3
20260509000738 14 196 6.4 12.9 0.00 0.00 0.00 48 1015.4
20260509000241 14 195 4.8 14.5 0.00 0.00 0.00 48 1015.3
20260508235738 14 194 6.4 14.5 0.00 0.00 0.00 48 1015.3
20260508235212 15 192 6.4 14.5 0.00 0.00 0.00 47 1015.3
20260508234712 15 192 4.8 14.5 0.00 0.00 0.00 48 1015.3
20260508234212 15 196 3.2 14.5 0.00 0.00 0.00 47 1015.3
20260508233712 15 194 8.0 14.5 0.00 0.00 0.00 46 1015.4
20260508233212 15 195 3.2 12.9 0.00 0.00 0.00 47 1015.5
20260508232712 15 194 4.8 12.9 0.00 0.00 0.00 47 1015.6
20260508232212 15 194 4.8 14.5 0.00 0.00 0.00 47 1015.6
20260508231712 15 195 4.8 14.5 0.00 0.00 0.00 45 1015.5
20260508231212 15 196 4.8 14.5 0.00 0.00 0.00 45 1015.5
20260508230712 15 196 4.8 14.5 0.00 0.00 0.00 44 1015.5
20260508230212 15 195 6.4 14.5 0.00 0.00 0.00 45 1015.4
20260508225219 15 191 9.7 16.1 0.00 0.00 0.00 45 1015.3
20260508224723 15 198 4.8 16.1 0.00 0.00 0.00 46 1015.3
20260508224219 15 192 8.0 16.1 0.00 0.00 0.00 44 1015.3
20260508223719 15 197 4.8 20.9 0.00 0.00 0.00 45 1015.3
20260508223219 15 196 4.8 20.9 0.00 0.00 0.00 44 1015.3
20260508222719 15 201 8.0 16.1 0.00 0.00 0.00 44 1015.3
20260508222219 15 187 4.8 16.1 0.00 0.00 0.00 45 1015.2
20260508221719 15 195 9.7 16.1 0.00 0.00 0.00 45 1015.1
20260508221219 15 187 3.2 12.9 0.00 0.00 0.00 45 1015.1
20260508220720 16 192 3.2 12.9 0.00 0.00 0.00 48 1015.1
20260508220220 16 194 3.2 14.5 0.00 0.00 0.00 44 1015.1
20260508215720 16 194 6.4 16.1 0.00 0.00 0.00 45 1015.1
20260508215219 16 196 4.8 16.1 0.00 0.00 0.00 44 1015.3
20260508214719 16 196 3.2 12.9 0.00 0.00 0.00 43 1015.3
20260508214219 16 194 4.8 12.9 0.00 0.00 0.00 42 1015.4
20260508213719 16 189 3.2 9.7 0.00 0.00 0.00 41 1015.4
20260508213219 16 190 3.2 9.7 0.00 0.00 0.00 41 1015.3
20260508212338 16 191 4.8 14.5 0.00 0.00 0.00 41 1015.2
20260508211838 16 193 4.8 14.5 0.00 0.00 0.00 41 1015.1
20260508211338 16 193 3.2 12.9 0.00 0.00 0.00 40 1015.4
20260508210718 17 206 4.8 16.1 0.00 0.00 0.00 42 1015.6
20260508205717 17 187 8.0 17.7 0.00 0.00 0.00 38 1015.6
20260508205217 17 188 6.4 14.5 0.00 0.00 0.00 40 1015.6
20260508204717 17 192 3.2 12.9 0.00 0.00 0.00 42 1015.7
20260508204217 17 192 3.2 19.3 0.00 0.00 0.00 37 1016.0
20260508203717 17 183 6.4 19.3 0.00 0.00 0.00 39 1016.2
20260508203004 17 178 3.2 16.1 0.00 0.00 0.00 40 1016.2
20260508202504 17 178 4.8 16.1 0.00 0.00 0.00 41 1016.2
20260508202004 17 179 4.8 24.1 0.00 0.00 0.00 41 1016.2
20260508201504 17 182 8.0 24.1 0.00 0.00 0.00 40 1016.1
20260508201004 17 187 8.0 20.9 0.00 0.00 0.00 40 1016.3
20260508200504 17 189 8.0 14.5 0.00 0.00 0.00 40 1016.3
20260508195845 18 192 4.8 20.9 0.00 0.00 0.00 37 1016.3
20260508195346 18 182 4.8 19.3 0.00 0.00 0.00 42 1016.2
20260508194847 18 183 6.4 19.3 0.00 0.00 0.00 39 1016.3
20260508194345 17 184 9.7 19.3 0.00 0.03 0.00 39 1016.3
20260508193845 17 187 6.4 19.3 0.00 0.10 0.00 40 1016.5
20260508193345 17 181 3.2 16.1 0.00 0.10 0.00 43 1016.5
20260508192845 17 183 6.4 16.1 0.00 0.10 0.00 42 1016.7
20260508192345 17 192 6.4 14.5 0.00 0.10 0.00 41 1016.8
20260508191847 17 200 4.8 20.9 0.00 0.10 0.00 38 1016.9
20260508191345 18 181 9.7 20.9 0.00 0.10 0.00 38 1016.9
20260508190845 17 181 3.2 17.7 0.00 0.10 0.00 41 1017.0
20260508190345 17 170 3.2 17.7 0.00 0.10 0.00 40 1017.0
20260508185845 17 173 8.0 17.7 0.00 0.10 0.00 37 1017.0
20260508185345 18 174 6.4 16.1 0.00 0.13 0.00 41 1017.0
20260508184845 17 175 9.7 16.1 0.00 0.13 0.00 40 1017.0
20260508184345 17 184 6.4 14.5 0.00 0.13 0.00 40 1017.2
20260508183845 17 184 8.0 16.1 0.00 0.13 0.00 40 1017.2
20260508183345 17 173 6.4 17.7 0.00 0.13 0.00 41 1017.1
20260508182845 17 184 9.7 17.7 0.00 0.13 0.00 40 1017.2
20260508182345 17 194 9.7 14.5 0.00 0.13 0.00 37 1017.3
20260508181544 17 188 6.4 14.5 0.00 0.13 0.00 37 1017.5
20260508181044 17 177 4.8 14.5 0.00 0.13 0.00 42 1017.5
20260508180545 17 171 6.4 14.5 0.00 0.13 0.00 44 1017.7
20260508175820 17 164 3.2 16.1 0.00 0.13 0.00 45 1017.8
20260508175318 17 167 11.3 16.1 0.00 0.13 0.00 39 1017.8
20260508174818 17 189 3.2 14.5 0.00 0.13 0.00 39 1017.9
20260508174317 18 189 4.8 11.3 0.00 0.13 0.00 42 1017.9
20260508173818 17 174 3.2 11.3 0.00 0.13 0.00 49 1017.9
20260508173318 17 175 3.2 12.9 0.00 0.13 0.00 43 1017.9
20260508172821 17 172 6.4 14.5 0.00 0.13 0.00 42 1018.0
20260508172319 17 166 4.8 14.5 0.00 0.13 0.00 46 1018.0
20260508171819 17 166 4.8 9.7 0.00 0.18 0.00 39 1018.2
20260508171317 17 166 3.2 12.9 0.00 0.18 0.00 44 1018.2
20260508170817 17 166 4.8 12.9 0.00 0.18 0.00 41 1018.2
20260508170317 17 165 1.6 11.3 0.00 0.18 0.00 43 1018.3
20260508165823 16 0 0.0 9.7 0.00 0.18 0.00 45 1018.3
20260508165317 16 165 1.6 17.7 0.00 0.18 0.00 43 1018.4
20260508164818 16 166 6.4 17.7 0.00 0.18 0.00 37 1018.6
20260508164317 16 165 4.8 16.1 0.00 0.18 0.00 39 1018.7
20260508163818 17 170 6.4 14.5 0.00 0.18 0.00 45 1018.7
20260508163318 16 176 4.8 12.9 0.00 0.18 0.00 43 1018.7
20260508162820 16 0 0.0 11.3 0.00 0.18 0.00 48 1018.9
20260508162318 16 174 3.2 17.7 0.00 0.18 0.00 43 1018.9
20260508161819 16 172 4.8 17.7 0.00 0.18 0.00 44 1019.1
20260508161317 16 177 1.6 9.7 0.00 0.18 0.00 46 1019.2
20260508160818 16 0 0.0 11.3 0.00 0.18 0.00 48 1019.2
20260508160317 16 180 1.6 11.3 0.00 0.18 0.18 43 1019.3
20260508155822 16 0 0.0 3.2 0.00 0.18 0.18 51 1019.4
20260508155317 15 0 0.0 9.7 0.00 0.18 0.18 50 1019.4
20260508154819 15 0 0.0 9.7 0.00 0.18 0.18 49 1019.4
20260508154317 15 0 0.0 9.7 0.00 0.18 0.18 45 1019.5
20260508153818 15 0 0.0 9.7 0.00 0.18 0.18 44 1019.5
20260508153318 15 0 0.0 8.0 0.00 0.18 0.18 45 1019.5
20260508152821 15 0 0.0 8.0 0.00 0.18 0.18 46 1019.6
20260508152317 15 0 0.0 14.5 0.00 0.18 0.18 50 1019.6
20260508151818 15 324 3.2 14.5 0.00 0.18 0.18 46 1019.6
20260508151317 15 0 0.0 9.7 0.00 0.18 0.18 50 1019.6
20260508150817 14 0 0.0 6.4 0.00 0.18 0.18 41 1019.6
20260508150317 15 0 0.0 6.4 0.00 0.18 0.18 47 1019.6
20260508145819 15 0 0.0 6.4 0.00 0.18 0.18 50 1019.7
20260508145317 15 0 0.0 6.4 0.00 0.18 0.18 49 1019.8
20260508144818 15 0 0.0 0.0 0.00 0.18 0.18 52 1019.7
20260508144317 14 0 0.0 0.0 0.00 0.18 0.18 48 1019.7
20260508143817 13 0 0.0 0.0 0.00 0.18 0.18 45 1019.6
20260508143317 13 0 0.0 16.1 0.00 0.18 0.18 48 1019.7
20260508142819 13 0 0.0 16.1 0.00 0.18 0.18 52 1019.7
20260508142317 13 0 0.0 0.0 0.00 0.18 0.18 53 1019.6
20260508141818 12 0 0.0 6.4 0.00 0.18 0.18 51 1019.5
20260508141317 12 0 0.0 6.4 0.00 0.18 0.18 55 1019.4
20260508140818 12 0 0.0 4.8 0.00 0.18 0.18 54 1019.4
20260508140317 12 0 0.0 6.4 0.00 0.18 0.18 54 1019.4
20260508135818 12 0 0.0 8.0 0.00 0.18 0.18 56 1019.4
20260508135317 12 327 1.6 8.0 0.00 0.18 0.18 52 1019.4
20260508134818 12 0 0.0 16.1 0.00 0.18 0.18 54 1019.3
20260508134317 11 0 0.0 16.1 0.00 0.18 0.18 53 1019.3
20260508133817 11 327 1.6 9.7 0.00 0.18 0.18 52 1019.3
20260508133318 11 0 0.0 9.7 0.00 0.18 0.18 56 1019.2
20260508132823 11 327 1.6 9.7 0.00 0.18 0.18 53 1019.2
20260508132317 11 0 0.0 6.4 0.00 0.18 0.18 53 1019.1
20260508131818 11 0 0.0 8.0 0.00 0.18 0.18 54 1019.0
20260508131318 11 0 0.0 8.0 0.00 0.18 0.18 52 1019.0
20260508130817 11 0 0.0 6.4 0.00 0.18 0.18 57 1019.0
20260508130318 11 0 0.0 8.0 0.00 0.18 0.18 59 1019.0
20260508125825 10 327 1.6 9.7 0.00 0.18 0.18 57 1018.9
20260508125318 10 0 0.0 9.7 0.00 0.18 0.18 59 1018.9